Weather History for Santa Fe, NM

Change the Weather History Date:

Tuesday, September 10, 2013

  Actual Average Record
Temperature  
Mean Temperature 64 °F -  
Max Temperature 70 °F 77 °F 86 °F (2000)
Min Temperature 59 °F 53 °F 41 °F (2001)
Degree Days  
Heating Degree Days 1    
Growing Degree Days 14 (Base 50)    
Moisture  
Dew Point 57 °F    
Average Humidity 85    
Maximum Humidity 100    
Minimum Humidity 58    
Precipitation  
Precipitation 1.89 in - - ()
Sea Level Pressure  
Sea Level Pressure 30.05 in    
Wind  
Wind Speed 9 mph (SSE)    
Max Wind Speed 17 mph    
Max Gust Speed 22 mph    
Visibility 5 miles    
Events Rain    
Averages and records for this station are not official NWS values.
T = Trace of Precipitation, MM = Missing Value Source: NWS Daily Summary

Daily Weather History Graph

Daily Weather History Graph

Search for Another Location

Airport:

Trip Planner

Search our weather history database for the weather conditions in past years. The results will help you decide how hot, cold, wet, or windy it might be!

Date:

Astronomy

Sep. 10, 2013 Rise Set
Actual Time 6:43 AM MDT 7:18 PM MDT
Civil Twilight 6:17 AM MDT 7:43 PM MDT
Nautical Twilight 5:47 AM MDT 8:14 PM MDT
Astronomical Twilight 5:16 AM MDT 8:45 PM MDT
Moon 11:59 AM MDT (9/10) 10:36 PM MDT (9/10)
Length of Visible Light 13h 26m
Length of Day
12h 34m
Waxing Crescent, 29% of the Moon is Illuminated
Sep 10
Waxing Crescent
Sep 12
First Quarter
Sep 19
Full
Sep 26
Last Quarter
Oct 4
New

Hourly Weather History & Observations

Time (MDT) Temp. Dew Point Humidity Pressure Visibility Wind Dir Wind Speed Gust Speed Precip Events Conditions
12:53 AM 64.9 °F 50.0 °F 58% 29.81 in 10.0 mi ESE 11.5 mph - N/A   Clear
1:53 AM 64.9 °F 51.1 °F 61% 29.80 in 10.0 mi ESE 10.4 mph - N/A   Partly Cloudy
2:53 AM 64.9 °F 52.0 °F 63% 29.81 in 10.0 mi SE 9.2 mph - N/A   Mostly Cloudy
3:53 AM 64.0 °F 52.0 °F 65% 29.79 in 10.0 mi SE 9.2 mph - N/A   Mostly Cloudy
4:53 AM 62.1 °F 52.0 °F 70% 29.81 in 10.0 mi SE 5.8 mph - N/A   Clear
5:53 AM 63.0 °F 52.0 °F 67% 29.82 in 10.0 mi South 3.5 mph - N/A   Overcast
6:53 AM 61.0 °F 52.0 °F 72% 29.85 in 10.0 mi SE 6.9 mph - N/A   Overcast
7:53 AM 61.0 °F 52.0 °F 72% 29.89 in 10.0 mi South 6.9 mph - N/A   Mostly Cloudy
8:53 AM 64.9 °F 53.1 °F 65% 29.89 in 10.0 mi South 8.1 mph - N/A   Overcast
9:53 AM 69.1 °F 54.0 °F 58% 29.91 in 10.0 mi ESE 17.3 mph 21.9 mph N/A   Mostly Cloudy
10:50 AM 62.6 °F 59.0 °F 88% 30.22 in 2.5 mi South 11.5 mph - 0.08 in Rain Heavy Rain
10:53 AM 60.1 °F 59.0 °F 96% 29.97 in 1.2 mi South 13.8 mph - 0.16 in Rain Heavy Rain
10:57 AM 60.8 °F 59.0 °F 94% 30.23 in 0.8 mi South 12.7 mph - 0.07 in Rain Heavy Rain
11:06 AM 59.0 °F 57.2 °F 94% 30.23 in 1.0 mi South 10.4 mph - 0.21 in Rain Heavy Rain
11:13 AM 59.0 °F 59.0 °F 100% 30.23 in 0.8 mi South 4.6 mph - 0.29 in Rain Heavy Rain
11:19 AM 60.8 °F 59.0 °F 94% 30.23 in 2.0 mi South 10.4 mph - 0.31 in Rain Rain
11:28 AM 60.8 °F 59.0 °F 94% 30.22 in 1.8 mi SSE 11.5 mph - 0.37 in Rain Rain
11:35 AM 60.8 °F 59.0 °F 94% 30.22 in 3.0 mi SSE 11.5 mph - 0.39 in Rain Rain
11:53 AM 61.0 °F 59.0 °F 93% 29.96 in 4.0 mi SSE 11.5 mph - 0.42 in Rain Light Rain
12:53 PM 64.0 °F 60.1 °F 87% 29.93 in 10.0 mi SSE 10.4 mph - 0.01 in   Overcast
1:53 PM 66.0 °F 57.0 °F 73% 29.92 in 10.0 mi SSE 16.1 mph 21.9 mph 0.00 in Rain Light Rain
2:15 PM 62.6 °F 59.0 °F 88% 30.20 in 1.8 mi South 8.1 mph - 0.05 in Rain Heavy Rain
2:38 PM 60.8 °F 59.0 °F 94% 30.18 in 2.5 mi West 4.6 mph - 0.14 in Rain Rain
2:46 PM 60.8 °F 59.0 °F 94% 30.18 in 3.0 mi West 4.6 mph - 0.15 in Rain Light Rain
2:53 PM 60.1 °F 57.9 °F 93% 29.93 in 4.0 mi West 8.1 mph - 0.16 in Rain Light Rain
3:50 PM 60.8 °F 59.0 °F 94% 30.18 in 2.0 mi SW 4.6 mph - 0.07 in Rain Rain
3:53 PM 61.0 °F 59.0 °F 93% 29.93 in 1.8 mi SW 3.5 mph - 0.08 in Rain Rain
4:00 PM 60.8 °F 59.0 °F 94% 30.18 in 2.5 mi SSW 5.8 mph - 0.01 in Rain Light Rain
4:23 PM 60.8 °F 59.0 °F 94% 30.19 in 1.0 mi South 10.4 mph - 0.17 in Rain Heavy Rain
4:43 PM 60.8 °F 57.2 °F 88% 30.20 in 2.5 mi SE 10.4 mph - 0.28 in Rain Rain
4:53 PM 60.1 °F 57.9 °F 93% 29.96 in 2.0 mi SE 8.1 mph - 0.33 in Rain Heavy Rain
5:11 PM 60.8 °F 57.2 °F 88% 30.19 in 4.0 mi SSE 3.5 mph - 0.06 in Rain Rain
5:18 PM 60.8 °F 57.2 °F 88% 30.20 in 1.8 mi ESE 3.5 mph - 0.11 in Rain Heavy Rain
5:27 PM 60.8 °F 57.2 °F 88% 30.19 in 3.0 mi ENE 3.5 mph - 0.12 in Rain Light Rain
5:30 PM 60.8 °F 57.2 °F 88% 30.19 in 5.0 mi ENE 3.5 mph - 0.12 in Rain Light Rain
5:53 PM 60.1 °F 59.0 °F 96% 29.95 in 6.0 mi ESE 9.2 mph - 0.15 in Rain Light Rain
6:53 PM 61.0 °F 57.0 °F 87% 29.97 in 6.0 mi ESE 10.4 mph - 0.07 in Rain Light Rain
7:53 PM 60.1 °F 57.9 °F 93% 29.98 in 10.0 mi ESE 5.8 mph - 0.12 in Rain Light Rain
8:04 PM 60.8 °F 57.2 °F 88% 30.21 in 10.0 mi East 3.5 mph - 0.00 in Rain Light Rain
8:53 PM 60.1 °F 55.9 °F 86% 29.98 in 6.0 mi ESE 10.4 mph - 0.02 in Rain Rain
9:53 PM 60.1 °F 57.0 °F 90% 29.98 in 9.0 mi East 5.8 mph - 0.08 in Rain Light Rain
10:53 PM 60.1 °F 57.0 °F 90% 30.01 in 6.0 mi ESE 8.1 mph - 0.05 in Rain Rain
11:22 PM 60.8 °F 57.2 °F 88% 30.22 in 2.5 mi ESE 6.9 mph - 0.12 in Rain Heavy Rain
11:27 PM 60.8 °F 57.2 °F 88% 30.22 in 3.0 mi ESE 8.1 mph - 0.15 in Rain Heavy Rain
11:53 PM 60.1 °F 57.9 °F 93% 29.99 in 3.0 mi SSE 15.0 mph - 0.24 in Rain Rain